YAOGAN-40 03A

Last updated on Tue Sep 16 2025 00:02:08 GMT+0000 (Coordinated Universal Time)

1 65544U 25199A 25258.57789033 .00000328 00000+0 12858-3 0 9993 2 65544 85.9955 167.2835 0011692 224.4467 135.5786 14.26260597 1274
UTC large
Height (km)
Speed (km/s)
/
Latitude / Longitude
Inclination (degrees)
Orbital Period (minutes)
Azimuth
Elevation
Range (km)
Doppler Factor

Next 0 passes for location: London (51.5072 / 0.1276)

Sorry there are no passes over London.